Voltar ao catálogo

USA 179

AtivoMilitarHEO
NORAD 28384·PAYLOAD·🇺🇸 United States

Lançado Aug 31, 2004 de Cape Canaveral Space Force Station

Loading…

Próximas Passagens (próximas 24 horas)

TLE

AtualizadoSource: Mike McCants

Época: Sep 15, 2026, 00:19 UTC

1 28384U 04034A   26258.01366971  .00001481  00000-0  00000-0 0    09
2 28384  63.5857 196.1275 7259984 255.8699  20.4332  2.00447793  5746

Acompanhe USA 179 em tempo real com AllMySat

Download on the App Store